Location: ??????
(38.0677°N, 22.9870°E)
Time: 08:42:11
(UTC+00:00)

Cosmos 371 Rocket - Pass Details

Date: 23 May 2024
Orbit: 679 x 694 km, 74.0° (Epoch: 24 June)

Event Time Altitude Azimuth Distance (km) Brightness Sun altitude
Exits shadow 02:38:52 - 215° (SW) 2,488 5.6 -6.4°
Reaches altitude 10° 02:39:52 10° 218° (SW) 2,110 5.2 -6.2°
Maximum altitude 02:44:26 46° 292° (WNW) 907 3.7 -5.5°
Drops below altitude 10° 02:49:02 10° 6° (N) 2,126 6.4 -4.7°
Sets 02:51:26 0° 13° (NNE) 3,046 7.3 -4.3°
